Time,TemperatureF,DewpointF,PressureIn,WindDirection,WindDirectionDegrees,WindSpeedMPH,WindSpeedGustMPH,Humidity,HourlyPrecipIn,Conditions,Clouds,dailyrainin,SoftwareType,DateUTC
2013-12-31 00:01:00,16.9,14.7,30.12,SW,225,0.0,0.0,91,0.00,CLR,,0.00,WeatherDisplay:10.37,2013-12-31 05:01:00,
2013-12-31 00:02:00,16.9,14.7,30.12,SE,135,0.0,0.0,91,0.00,CLR,,0.00,WeatherDisplay:10.37,2013-12-31 05:02:00,
2013-12-31 00:07:00,17.1,14.9,30.12,West,270,0.0,0.0,91,0.00,CLR,,0.00,WeatherDisplay:10.37,2013-12-31 05:07:00,
2013-12-31 00:12:00,17.1,14.9,30.12,SW,225,0.2,1.2,91,0.00,CLR,,0.00,WeatherDisplay:10.37,2013-12-31 05:12:00,
2013-12-31 00:17:00,17.1,14.9,30.12,SW,225,0.0,1.2,91,0.00,CLR,,0.00,WeatherDisplay:10.37,2013-12-31 05:17:00,
2013-12-31 00:22:00,17.1,14.9,30.11,South,180,0.0,0.0,91,0.00,CLR,,0.00,WeatherDisplay:10.37,2013-12-31 05:22:00,
2013-12-31 00:27:00,17.1,14.9,30.11,SSW,202,0.0,0.0,91,0.00,CLR,,0.00,WeatherDisplay:10.37,2013-12-31 05:27:00,
2013-12-31 00:32:00,17.1,15.2,30.11,South,180,0.0,0.0,92,0.00,CLR,,0.00,WeatherDisplay:10.37,2013-12-31 05:32:00,
2013-12-31 00:37:00,17.3,15.4,30.11,SW,225,0.0,0.0,92,0.00,CLR,,0.00,WeatherDisplay:10.37,2013-12-31 05:37:00,
2013-12-31 00:42:00,17.3,15.6,30.11,SSW,202,0.0,0.0,93,0.00,CLR,,0.00,WeatherDisplay:10.37,2013-12-31 05:42:00,
2013-12-31 00:47:00,17.3,15.6,30.10,SW,225,1.4,1.4,93,0.00,CLR,,0.00,WeatherDisplay:10.37,2013-12-31 05:47:00,
2013-12-31 00:52:00,17.3,15.6,30.10,West,270,0.0,0.0,93,0.00,CLR,,0.00,WeatherDisplay:10.37,2013-12-31 05:52:00,
2013-12-31 00:57:00,17.3,15.6,30.10,West,270,0.0,0.0,93,0.00,CLR,,0.00,WeatherDisplay:10.37,2013-12-31 05:57:00,
2013-12-31 01:02:00,17.3,15.6,30.10,West,270,0.1,1.1,93,0.00,CLR,,0.00,WeatherDisplay:10.37,2013-12-31 06:02:00,
2013-12-31 01:07:00,17.3,15.6,30.10,WNW,292,0.0,0.0,93,0.00,CLR,,0.00,WeatherDisplay:10.37,2013-12-31 06:07:00,
2013-12-31 01:12:00,17.3,15.6,30.10,NNE,22,0.0,0.0,93,0.00,CLR,,0.00,WeatherDisplay:10.37,2013-12-31 06:12:00,
2013-12-31 01:17:00,17.4,15.7,30.10,West,270,0.0,0.0,93,0.00,CLR,,0.00,WeatherDisplay:10.37,2013-12-31 06:17:00,
2013-12-31 01:22:00,17.6,15.9,30.09,SW,225,0.0,0.0,93,0.00,CLR,,0.00,WeatherDisplay:10.37,2013-12-31 06:22:00,
2013-12-31 01:27:00,17.6,16.1,30.09,SSW,202,0.0,0.0,94,0.00,CLR,,0.00,WeatherDisplay:10.37,2013-12-31 06:27:00,
2013-12-31 01:32:00,17.6,16.1,30.08,SSW,202,0.0,0.0,94,0.00,CLR,,0.00,WeatherDisplay:10.37,2013-12-31 06:32:00,
2013-12-31 01:37:00,17.6,16.1,30.08,South,180,0.0,0.0,94,0.00,CLR,,0.00,WeatherDisplay:10.37,2013-12-31 06:37:00,
2013-12-31 01:42:00,17.6,16.1,30.08,SSW,202,0.0,0.0,94,0.00,CLR,,0.00,WeatherDisplay:10.37,2013-12-31 06:42:00,
2013-12-31 01:47:00,17.6,16.1,30.07,SSW,202,0.0,0.0,94,0.00,CLR,,0.00,WeatherDisplay:10.37,2013-12-31 06:47:00,
2013-12-31 01:52:00,17.6,16.1,30.07,SSW,202,0.4,1.2,94,0.00,CLR,,0.00,WeatherDisplay:10.37,2013-12-31 06:52:00,
2013-12-31 01:57:00,17.6,16.1,30.06,SW,225,0.0,0.0,94,0.00,CLR,,0.00,WeatherDisplay:10.37,2013-12-31 06:57:00,
2013-12-31 02:02:00,17.6,16.1,30.06,WSW,248,0.0,0.0,94,0.00,CLR,,0.00,WeatherDisplay:10.37,2013-12-31 07:02:00,
2013-12-31 02:07:00,17.6,17.6,30.06,SW,225,1.1,1.2,100,0.00,CLR,,0.00,WeatherDisplay:10.37,2013-12-31 07:07:00,
2013-12-31 02:12:00,17.6,17.6,30.06,SW,225,0.6,1.7,100,0.00,,,0.00,WeatherDisplay:10.37,2013-12-31 07:12:00,
2013-12-31 02:17:00,17.6,17.6,30.06,SSW,202,0.0,0.0,100,0.00,,,0.00,WeatherDisplay:10.37,2013-12-31 07:17:00,
2013-12-31 02:22:00,17.6,17.6,30.06,SW,225,0.0,0.0,100,0.00,,,0.00,WeatherDisplay:10.37,2013-12-31 07:22:00,
2013-12-31 02:27:00,17.8,17.8,30.06,SW,225,0.0,0.0,100,0.00,,,0.00,WeatherDisplay:10.37,2013-12-31 07:27:00,
2013-12-31 02:32:00,17.8,17.8,30.05,WSW,248,0.0,0.0,100,0.00,,,0.00,WeatherDisplay:10.37,2013-12-31 07:32:00,
2013-12-31 02:37:00,17.8,17.8,30.05,SSW,202,0.0,0.0,100,0.00,,,0.00,WeatherDisplay:10.37,2013-12-31 07:37:00,
2013-12-31 02:42:00,17.8,17.8,30.05,SW,225,0.0,0.0,100,0.00,,,0.00,WeatherDisplay:10.37,2013-12-31 07:42:00,
2013-12-31 02:47:00,18.0,16.5,30.05,South,180,2.0,2.7,94,0.00,CLR,,0.00,WeatherDisplay:10.37,2013-12-31 07:47:00,
2013-12-31 02:52:00,18.0,16.5,30.05,South,180,1.5,2.3,94,0.00,CLR,,0.00,WeatherDisplay:10.37,2013-12-31 07:52:00,
2013-12-31 02:57:00,18.2,16.2,30.05,SSE,158,3.3,3.5,92,0.00,CLR,,0.00,WeatherDisplay:10.37,2013-12-31 07:57:00,
2013-12-31 03:02:00,18.3,16.1,30.05,South,180,2.5,3.5,91,0.00,CLR,,0.00,WeatherDisplay:10.37,2013-12-31 08:02:00,
2013-12-31 03:07:00,18.3,16.1,30.05,SSE,158,2.6,3.5,91,0.00,CLR,,0.00,WeatherDisplay:10.37,2013-12-31 08:07:00,
2013-12-31 03:12:00,18.3,15.8,30.05,South,180,3.6,3.6,90,0.00,CLR,,0.00,WeatherDisplay:10.37,2013-12-31 08:12:00,
2013-12-31 03:17:00,18.5,16.0,30.05,SE,135,2.2,3.5,90,0.00,CLR,,0.00,WeatherDisplay:10.37,2013-12-31 08:17:00,
2013-12-31 03:22:00,18.5,15.8,30.05,SSW,202,4.1,5.8,89,0.00,CLR,,0.00,WeatherDisplay:10.37,2013-12-31 08:22:00,
2013-12-31 03:27:00,18.7,16.2,30.05,SSW,202,4.5,6.3,90,0.00,CLR,,0.00,WeatherDisplay:10.37,2013-12-31 08:27:00,
2013-12-31 03:32:00,18.7,15.7,30.06,SSW,202,5.2,6.9,88,0.00,CLR,,0.00,WeatherDisplay:10.37,2013-12-31 08:32:00,
2013-12-31 03:37:00,18.7,16.0,30.06,SSW,202,5.5,5.8,89,0.00,CLR,,0.00,WeatherDisplay:10.37,2013-12-31 08:37:00,
2013-12-31 03:43:00,18.7,15.7,30.06,SE,135,4.0,5.8,88,0.00,CLR,,0.00,WeatherDisplay:10.37,2013-12-31 08:43:00,
2013-12-31 03:48:00,18.7,16.0,30.04,SSW,202,4.0,4.7,89,0.00,CLR,,0.00,WeatherDisplay:10.37,2013-12-31 08:48:00,
2013-12-31 03:53:00,18.7,16.0,30.04,SSW,202,4.4,6.9,89,0.00,CLR,,0.00,WeatherDisplay:10.37,2013-12-31 08:53:00,
2013-12-31 03:58:00,18.7,16.0,30.04,SSE,158,3.0,4.6,89,0.00,CLR,,0.00,WeatherDisplay:10.37,2013-12-31 08:58:00,
2013-12-31 04:03:00,18.7,16.0,30.04,South,180,5.1,5.8,89,0.00,CLR,,0.00,WeatherDisplay:10.37,2013-12-31 09:03:00,
2013-12-31 04:08:00,18.7,16.2,30.04,South,180,5.5,5.8,90,0.00,CLR,,0.00,WeatherDisplay:10.37,2013-12-31 09:08:00,
2013-12-31 04:13:00,18.7,16.2,30.03,South,180,4.3,5.8,90,0.00,CLR,,0.00,WeatherDisplay:10.37,2013-12-31 09:13:00,
2013-12-31 04:18:00,18.7,16.2,30.03,South,180,4.0,5.8,90,0.00,CLR,,0.00,WeatherDisplay:10.37,2013-12-31 09:18:00,
2013-12-31 04:23:00,18.7,16.2,30.02,South,180,4.3,4.6,90,0.00,CLR,,0.00,WeatherDisplay:10.37,2013-12-31 09:23:00,
2013-12-31 04:28:00,18.7,16.5,30.02,SSE,158,3.1,4.6,91,0.00,CLR,,0.00,WeatherDisplay:10.37,2013-12-31 09:28:00,
2013-12-31 04:33:00,18.7,16.5,30.01,SW,225,3.1,4.2,91,0.00,CLR,,0.00,WeatherDisplay:10.37,2013-12-31 09:33:00,
2013-12-31 04:38:00,18.7,16.2,30.01,SSW,202,4.6,5.8,90,0.00,CLR,,0.00,WeatherDisplay:10.37,2013-12-31 09:38:00,
2013-12-31 04:43:00,18.9,16.4,30.01,South,180,3.4,4.6,90,0.00,CLR,,0.00,WeatherDisplay:10.37,2013-12-31 09:43:00,
2013-12-31 04:48:00,18.9,16.4,30.01,SSW,202,4.1,5.8,90,0.00,CLR,,0.00,WeatherDisplay:10.37,2013-12-31 09:48:00,
2013-12-31 04:53:00,18.9,16.2,30.01,SE,135,5.2,6.9,89,0.00,CLR,,0.00,WeatherDisplay:10.37,2013-12-31 09:53:00,
2013-12-31 04:58:00,18.9,16.4,30.01,SSE,158,5.1,5.8,90,0.00,CLR,,0.00,WeatherDisplay:10.37,2013-12-31 09:58:00,
2013-12-31 05:03:00,18.9,16.4,30.01,South,180,4.5,4.7,90,0.00,CLR,,0.00,WeatherDisplay:10.37,2013-12-31 10:03:00,
2013-12-31 05:08:00,18.9,16.7,30.01,SE,135,3.8,4.6,91,0.00,CLR,,0.00,WeatherDisplay:10.37,2013-12-31 10:08:00,
2013-12-31 05:13:00,18.9,16.4,30.01,SSW,202,3.2,4.2,90,0.00,CLR,,0.00,WeatherDisplay:10.37,2013-12-31 10:13:00,
2013-12-31 05:18:00,18.9,16.4,30.01,SSW,202,4.0,4.7,90,0.00,CLR,,0.00,WeatherDisplay:10.37,2013-12-31 10:18:00,
2013-12-31 05:23:00,19.1,16.6,30.00,SSE,158,3.4,4.6,90,0.00,CLR,,0.00,WeatherDisplay:10.37,2013-12-31 10:23:00,
2013-12-31 05:28:00,19.1,16.4,30.00,SSW,202,4.8,5.8,89,0.00,CLR,,0.00,WeatherDisplay:10.37,2013-12-31 10:28:00,
2013-12-31 05:33:00,19.1,16.9,30.00,South,180,3.4,3.7,91,0.00,CLR,,0.00,WeatherDisplay:10.37,2013-12-31 10:33:00,
2013-12-31 05:38:00,19.1,16.6,30.00,SSE,158,3.3,4.7,90,0.00,CLR,,0.00,WeatherDisplay:10.37,2013-12-31 10:38:00,
2013-12-31 05:43:00,19.1,16.9,30.00,South,180,4.2,4.6,91,0.00,CLR,,0.00,WeatherDisplay:10.37,2013-12-31 10:43:00,
2013-12-31 05:48:00,19.1,16.6,29.99,SSE,158,3.9,5.8,90,0.00,CLR,,0.00,WeatherDisplay:10.37,2013-12-31 10:48:00,
2013-12-31 05:53:00,19.1,16.9,29.99,SW,225,3.3,3.7,91,0.00,CLR,,0.00,WeatherDisplay:10.37,2013-12-31 10:53:00,
2013-12-31 05:58:00,19.1,17.1,30.00,SW,225,2.7,3.5,92,0.00,CLR,,0.00,WeatherDisplay:10.37,2013-12-31 10:58:00,
2013-12-31 06:03:00,19.1,17.4,30.00,SSW,202,2.9,3.5,93,0.00,CLR,,0.00,WeatherDisplay:10.37,2013-12-31 11:03:00,
2013-12-31 06:08:00,19.1,17.4,29.98,SE,135,2.4,3.5,93,0.00,CLR,,0.00,WeatherDisplay:10.37,2013-12-31 11:08:00,
2013-12-31 06:13:00,19.1,17.4,29.98,SSE,158,2.7,2.7,93,0.00,CLR,,0.00,WeatherDisplay:10.37,2013-12-31 11:13:00,
2013-12-31 06:18:00,19.1,17.4,29.98,ESE,112,1.9,2.3,93,0.00,CLR,,0.00,WeatherDisplay:10.37,2013-12-31 11:18:00,
2013-12-31 06:23:00,19.1,17.4,29.98,SSE,158,0.0,0.0,93,0.00,CLR,,0.00,WeatherDisplay:10.37,2013-12-31 11:23:00,
2013-12-31 06:28:00,19.1,17.1,29.98,SSW,202,0.0,0.0,92,0.00,CLR,,0.00,WeatherDisplay:10.37,2013-12-31 11:28:00,
2013-12-31 06:33:00,19.1,17.4,29.98,SSW,202,0.0,0.0,93,0.00,CLR,,0.00,WeatherDisplay:10.37,2013-12-31 11:33:00,
2013-12-31 06:38:00,18.9,17.2,29.98,SSW,202,0.0,0.0,93,0.00,CLR,,0.00,WeatherDisplay:10.37,2013-12-31 11:38:00,
2013-12-31 06:43:00,18.9,17.4,29.98,West,270,0.1,1.1,94,0.00,CLR,,0.00,WeatherDisplay:10.37,2013-12-31 11:43:00,
2013-12-31 06:48:00,18.9,17.7,29.98,South,180,0.0,0.0,95,0.00,CLR,,0.00,WeatherDisplay:10.37,2013-12-31 11:48:00,
2013-12-31 06:53:00,18.9,17.7,29.98,SSE,158,2.9,3.5,95,0.00,CLR,,0.00,WeatherDisplay:10.37,2013-12-31 11:53:00,
2013-12-31 06:58:00,18.9,17.4,29.97,SSE,158,2.3,2.7,94,0.00,CLR,,0.00,WeatherDisplay:10.37,2013-12-31 11:58:00,
2013-12-31 07:03:00,18.9,17.7,29.97,South,180,1.4,1.7,95,0.00,CLR,,0.00,WeatherDisplay:10.37,2013-12-31 12:03:00,
2013-12-31 07:08:00,18.9,17.7,29.98,SSW,202,2.7,3.2,95,0.00,CLR,,0.00,WeatherDisplay:10.37,2013-12-31 12:08:00,
2013-12-31 07:13:00,18.9,17.7,29.98,SSW,202,2.5,2.5,95,0.00,CLR,,0.00,WeatherDisplay:10.37,2013-12-31 12:13:00,
2013-12-31 07:18:00,18.9,18.9,29.98,South,180,2.5,2.5,100,0.00,,,0.00,WeatherDisplay:10.37,2013-12-31 12:18:00,
2013-12-31 07:23:00,18.9,18.9,29.97,South,180,2.2,2.3,100,0.00,,,0.00,WeatherDisplay:10.37,2013-12-31 12:23:00,
2013-12-31 07:28:00,18.9,18.9,29.97,SSE,158,3.7,3.7,100,0.00,,,0.00,WeatherDisplay:10.37,2013-12-31 12:28:00,
2013-12-31 07:33:00,18.7,18.7,29.97,ESE,112,4.2,5.8,100,0.00,,,0.00,WeatherDisplay:10.37,2013-12-31 12:33:00,
2013-12-31 07:38:00,18.7,18.7,29.97,ESE,112,2.3,4.2,100,0.00,,,0.00,WeatherDisplay:10.37,2013-12-31 12:38:00,
2013-12-31 07:43:00,18.7,18.7,29.97,South,180,4.1,4.2,100,0.00,,,0.00,WeatherDisplay:10.37,2013-12-31 12:43:00,
2013-12-31 07:48:00,18.7,18.7,29.96,SSE,158,5.8,5.8,100,0.00,,,0.00,WeatherDisplay:10.37,2013-12-31 12:48:00,
2013-12-31 07:53:00,18.9,18.9,29.96,South,180,3.7,4.6,100,0.00,,,0.00,WeatherDisplay:10.37,2013-12-31 12:53:00,
2013-12-31 07:58:00,19.1,19.1,29.95,South,180,3.8,5.8,100,0.00,,,0.00,WeatherDisplay:10.37,2013-12-31 12:58:00,
2013-12-31 08:03:00,19.1,19.1,29.95,South,180,4.7,6.9,100,0.00,,,0.00,WeatherDisplay:10.37,2013-12-31 13:03:00,
2013-12-31 08:09:00,19.2,19.2,29.95,South,180,3.3,5.8,100,0.00,,,0.00,WeatherDisplay:10.37,2013-12-31 13:09:00,
2013-12-31 08:13:00,19.4,19.4,29.95,SSE,158,5.0,5.8,100,0.00,,,0.00,WeatherDisplay:10.37,2013-12-31 13:13:00,
2013-12-31 08:19:00,19.6,19.6,29.95,South,180,5.4,5.8,100,0.00,,,0.00,WeatherDisplay:10.37,2013-12-31 13:19:00,
2013-12-31 08:24:00,19.6,19.6,29.94,South,180,3.7,4.6,100,0.00,,,0.00,WeatherDisplay:10.37,2013-12-31 13:24:00,
2013-12-31 08:29:00,19.8,19.8,29.94,SSW,202,4.4,6.9,100,0.00,,,0.00,WeatherDisplay:10.37,2013-12-31 13:29:00,
2013-12-31 08:34:00,20.0,20.0,29.94,SSW,202,6.6,8.8,100,0.00,,,0.00,WeatherDisplay:10.37,2013-12-31 13:34:00,
2013-12-31 08:39:00,20.1,20.1,29.94,SSE,158,4.0,5.8,100,0.00,,,0.00,WeatherDisplay:10.37,2013-12-31 13:39:00,
2013-12-31 08:44:00,20.1,20.1,29.94,SSW,202,6.2,6.9,100,0.00,,,0.00,WeatherDisplay:10.37,2013-12-31 13:44:00,
2013-12-31 08:49:00,20.5,20.5,29.93,South,180,4.6,5.8,100,0.00,,,0.00,WeatherDisplay:10.37,2013-12-31 13:49:00,
2013-12-31 08:54:00,20.7,20.7,29.93,SSE,158,6.0,9.2,100,0.00,,,0.00,WeatherDisplay:10.37,2013-12-31 13:54:00,
2013-12-31 08:59:00,20.7,20.7,29.93,South,180,6.1,6.9,100,0.00,,,0.00,WeatherDisplay:10.37,2013-12-31 13:59:00,
2013-12-31 09:04:00,20.9,20.9,29.93,South,180,7.0,8.1,100,0.00,CLR,,0.00,WeatherDisplay:10.37,2013-12-31 14:04:00,
2013-12-31 09:09:00,21.2,21.2,29.93,SSW,202,4.8,8.1,100,0.00,CLR,,0.00,WeatherDisplay:10.37,2013-12-31 14:09:00,
2013-12-31 09:14:00,21.2,21.2,29.93,ESE,112,6.7,7.8,100,0.00,,,0.00,WeatherDisplay:10.37,2013-12-31 14:14:00,
2013-12-31 09:19:00,21.4,21.4,29.93,SSE,158,7.2,9.2,100,0.00,CLR,,0.00,WeatherDisplay:10.37,2013-12-31 14:19:00,
2013-12-31 09:24:00,21.6,21.6,29.92,SE,135,7.1,9.2,100,0.00,CLR,,0.00,WeatherDisplay:10.37,2013-12-31 14:24:00,
2013-12-31 09:29:00,21.9,21.9,29.92,South,180,5.5,7.3,100,0.00,CLR,,0.00,WeatherDisplay:10.37,2013-12-31 14:29:00,
2013-12-31 09:34:00,22.7,22.7,29.93,SSW,202,6.8,9.2,100,0.00,CLR,,0.00,WeatherDisplay:10.37,2013-12-31 14:34:00,
2013-12-31 09:39:00,22.8,22.8,29.93,SSW,202,8.3,10.4,100,0.00,CLR,,0.00,WeatherDisplay:10.37,2013-12-31 14:39:00,
2013-12-31 09:44:00,23.0,23.0,29.92,SSW,202,9.6,11.5,100,0.00,CLR,,0.00,WeatherDisplay:10.37,2013-12-31 14:44:00,
2013-12-31 09:49:00,23.2,23.2,29.92,SSW,202,7.2,8.1,100,0.00,CLR,,0.00,WeatherDisplay:10.37,2013-12-31 14:49:00,
2013-12-31 09:54:00,23.4,23.4,29.92,SSW,202,9.7,11.5,100,0.00,CLR,,0.00,WeatherDisplay:10.37,2013-12-31 14:54:00,
2013-12-31 09:59:00,23.4,23.4,29.93,South,180,9.2,10.4,100,0.00,CLR,,0.00,WeatherDisplay:10.37,2013-12-31 14:59:00,
2013-12-31 10:04:00,23.4,23.4,29.93,SW,225,9.8,12.7,100,0.00,CLR,,0.00,WeatherDisplay:10.37,2013-12-31 15:04:00,
2013-12-31 10:09:00,23.2,23.2,29.94,SSW,202,5.8,9.2,100,0.00,CLR,,0.00,WeatherDisplay:10.37,2013-12-31 15:09:00,
2013-12-31 10:14:00,23.2,23.2,29.94,SSE,158,4.8,6.8,100,0.00,CLR,,0.00,WeatherDisplay:10.37,2013-12-31 15:14:00,
2013-12-31 10:19:00,23.0,23.0,29.94,SW,225,7.5,8.1,100,0.00,CLR,,0.00,WeatherDisplay:10.37,2013-12-31 15:19:00,
2013-12-31 10:24:00,23.0,23.0,29.95,WSW,248,6.0,9.4,100,0.00,CLR,,0.00,WeatherDisplay:10.37,2013-12-31 15:24:00,
2013-12-31 10:29:00,22.8,22.8,29.95,WNW,292,5.3,5.8,100,0.00,CLR,,0.00,WeatherDisplay:10.37,2013-12-31 15:29:00,
2013-12-31 10:34:00,22.7,22.7,29.96,SSW,202,6.9,6.9,100,0.00,CLR,,0.00,WeatherDisplay:10.37,2013-12-31 15:34:00,
2013-12-31 10:39:00,22.8,22.8,29.96,SSW,202,8.2,10.4,100,0.00,CLR,,0.00,WeatherDisplay:10.37,2013-12-31 15:39:00,
2013-12-31 10:44:00,22.5,22.5,29.96,SW,225,6.1,10.4,100,0.00,CLR,,0.00,WeatherDisplay:10.37,2013-12-31 15:44:00,
2013-12-31 10:49:00,22.5,22.5,29.96,WSW,248,6.4,9.2,100,0.00,CLR,,0.00,WeatherDisplay:10.37,2013-12-31 15:49:00,
2013-12-31 10:54:00,22.3,22.3,29.96,West,270,9.5,10.4,100,0.00,CLR,,0.00,WeatherDisplay:10.37,2013-12-31 15:54:00,
2013-12-31 10:59:00,22.1,22.1,29.97,SW,225,5.6,9.2,100,0.00,CLR,,0.00,WeatherDisplay:10.37,2013-12-31 15:59:00,
2013-12-31 11:04:00,22.3,22.3,29.97,South,180,8.0,8.1,100,0.00,CLR,,0.00,WeatherDisplay:10.37,2013-12-31 16:04:00,
2013-12-31 11:09:00,22.5,22.5,29.97,WSW,248,6.5,8.1,100,0.00,CLR,,0.00,WeatherDisplay:10.37,2013-12-31 16:09:00,
2013-12-31 11:14:00,22.1,22.1,29.97,SSW,202,7.3,9.2,100,0.00,CLR,,0.00,WeatherDisplay:10.37,2013-12-31 16:14:00,
2013-12-31 11:19:00,22.1,22.1,29.97,West,270,7.0,8.1,100,0.00,,,0.00,WeatherDisplay:10.37,2013-12-31 16:19:00,
2013-12-31 11:24:00,21.9,21.9,29.97,West,270,4.0,4.6,100,0.00,,,0.00,WeatherDisplay:10.37,2013-12-31 16:24:00,
2013-12-31 11:29:00,22.5,22.5,29.97,South,180,0.0,0.0,100,0.00,,,0.00,WeatherDisplay:10.37,2013-12-31 16:29:00,
2013-12-31 11:34:00,22.5,22.5,29.97,South,180,3.7,5.3,100,0.00,,,0.00,WeatherDisplay:10.37,2013-12-31 16:34:00,
2013-12-31 11:39:00,21.6,21.6,29.97,WSW,248,4.3,10.4,100,0.00,,,0.00,WeatherDisplay:10.37,2013-12-31 16:39:00,
2013-12-31 11:44:00,21.8,21.8,29.97,West,270,3.0,6.9,100,0.00,,,0.00,WeatherDisplay:10.37,2013-12-31 16:44:00,
2013-12-31 11:49:00,21.8,21.8,29.97,WSW,248,5.6,5.8,100,0.00,,,0.00,WeatherDisplay:10.37,2013-12-31 16:49:00,
2013-12-31 11:54:00,21.0,21.0,29.97,South,180,5.9,6.9,100,0.00,,,0.00,WeatherDisplay:10.37,2013-12-31 16:54:00,
2013-12-31 11:59:00,21.2,21.2,29.98,South,180,5.0,6.9,100,0.00,,,0.00,WeatherDisplay:10.37,2013-12-31 16:59:00,
2013-12-31 12:04:00,21.2,21.2,29.98,SSW,202,5.4,6.9,100,0.00,,,0.00,WeatherDisplay:10.37,2013-12-31 17:04:00,
2013-12-31 12:09:00,21.6,21.6,29.97,South,180,5.8,6.8,100,0.00,,,0.00,WeatherDisplay:10.37,2013-12-31 17:09:00,
2013-12-31 12:14:00,21.4,21.4,29.97,WSW,248,6.7,9.2,100,0.00,CLR,,0.00,WeatherDisplay:10.37,2013-12-31 17:14:00,
2013-12-31 12:19:00,21.2,21.2,29.97,SSW,202,11.4,19.6,100,0.00,CLR,,0.00,WeatherDisplay:10.37,2013-12-31 17:19:00,
2013-12-31 12:24:00,20.7,20.7,29.99,South,180,11.9,11.9,100,0.00,CLR,,0.00,WeatherDisplay:10.37,2013-12-31 17:24:00,
2013-12-31 12:29:00,20.7,20.7,29.99,South,180,11.9,11.9,100,0.00,CLR,,0.00,WeatherDisplay:10.37,2013-12-31 17:29:00,
2013-12-31 12:34:00,20.3,20.3,30.00,SW,225,10.0,10.0,100,0.00,CLR,,0.00,WeatherDisplay:10.37,2013-12-31 17:34:00,
2013-12-31 12:39:00,20.3,20.3,30.00,SSW,202,5.0,9.4,100,0.00,CLR,,0.00,WeatherDisplay:10.37,2013-12-31 17:39:00,
2013-12-31 12:44:00,20.5,20.5,30.01,WSW,248,8.7,9.9,100,0.00,CLR,,0.00,WeatherDisplay:10.37,2013-12-31 17:44:00,
2013-12-31 12:49:00,20.0,20.0,30.01,South,180,8.3,11.5,100,0.00,CLR,,0.00,WeatherDisplay:10.37,2013-12-31 17:49:00,
2013-12-31 12:54:00,20.1,20.1,30.01,SSW,202,7.7,9.2,100,0.00,CLR,,0.00,WeatherDisplay:10.37,2013-12-31 17:54:00,
2013-12-31 12:59:00,20.1,18.6,30.01,SSW,202,9.3,10.4,94,0.00,CLR,,0.00,WeatherDisplay:10.37,2013-12-31 17:59:00,
2013-12-31 13:04:00,21.0,19.0,30.01,SSW,202,5.3,7.3,92,0.00,CLR,,0.00,WeatherDisplay:10.37,2013-12-31 18:04:00,
2013-12-31 13:09:00,21.0,18.2,30.01,South,180,4.7,8.1,89,0.00,CLR,,0.00,WeatherDisplay:10.37,2013-12-31 18:09:00,
2013-12-31 13:14:00,21.4,17.8,30.01,South,180,3.8,7.8,86,0.00,CLR,,0.00,WeatherDisplay:10.37,2013-12-31 18:14:00,
2013-12-31 13:19:00,21.2,17.9,30.01,SSW,202,6.7,6.9,87,0.00,CLR,,0.00,WeatherDisplay:10.37,2013-12-31 18:19:00,
2013-12-31 13:25:00,21.0,17.7,30.01,South,180,6.3,6.3,87,0.00,CLR,,0.00,WeatherDisplay:10.37,2013-12-31 18:25:00,
2013-12-31 13:30:00,20.7,18.5,30.01,SW,225,6.5,12.4,91,0.00,CLR,,0.00,WeatherDisplay:10.37,2013-12-31 18:30:00,
2013-12-31 13:35:00,20.3,18.6,30.02,SW,225,7.8,10.4,93,0.00,CLR,,0.00,WeatherDisplay:10.37,2013-12-31 18:35:00,
2013-12-31 13:40:00,20.3,18.8,30.02,South,180,7.6,10.4,94,0.00,CLR,,0.00,WeatherDisplay:10.37,2013-12-31 18:40:00,
2013-12-31 13:45:00,20.3,20.3,30.02,SSW,206,9.0,13.0,100,0.00,CLR,,0.00,WeatherDisplay:10.37,2013-12-31 18:45:00,
2013-12-31 13:50:00,20.3,18.8,30.02,SSW,208,7.0,12.0,94,0.00,CLR,,0.00,WeatherDisplay:10.37,2013-12-31 18:50:00,
2013-12-31 13:55:00,20.3,18.6,30.02,SW,225,8.0,11.5,93,0.00,CLR,,0.00,WeatherDisplay:10.37,2013-12-31 18:55:00,
2013-12-31 14:00:00,20.5,18.5,30.03,SW,224,6.0,14.0,92,0.00,CLR,,0.00,WeatherDisplay:10.37,2013-12-31 19:00:00,
2013-12-31 14:05:00,20.3,18.3,30.03,West,270,10.2,16.1,92,0.00,CLR,,0.00,WeatherDisplay:10.37,2013-12-31 19:05:00,
2013-12-31 14:10:00,20.1,18.4,30.04,SSW,202,9.1,10.4,93,0.00,CLR,,0.00,WeatherDisplay:10.37,2013-12-31 19:10:00,
2013-12-31 14:15:00,19.8,18.6,30.04,SSW,199,7.0,10.0,95,0.00,CLR,,0.00,WeatherDisplay:10.37,2013-12-31 19:15:00,
2013-12-31 14:20:00,19.6,19.6,30.04,South,180,4.2,10.4,100,0.00,CLR,,0.00,WeatherDisplay:10.37,2013-12-31 19:20:00,
2013-12-31 14:25:00,19.6,19.6,30.05,South,180,7.5,10.9,100,0.00,CLR,,0.00,WeatherDisplay:10.37,2013-12-31 19:25:00,
2013-12-31 14:30:00,20.0,18.5,30.05,South,180,6.6,9.2,94,0.00,CLR,,0.00,WeatherDisplay:10.37,2013-12-31 19:30:00,
2013-12-31 14:35:00,19.8,17.1,30.06,SW,225,15.1,15.5,89,0.00,CLR,,0.00,WeatherDisplay:10.37,2013-12-31 19:35:00,
2013-12-31 14:40:00,19.8,16.3,30.06,SW,225,8.1,10.4,86,0.00,CLR,,0.00,WeatherDisplay:10.37,2013-12-31 19:40:00,
2013-12-31 14:45:00,19.6,15.8,30.07,SSW,208,9.0,21.0,85,0.00,CLR,,0.00,WeatherDisplay:10.37,2013-12-31 19:45:00,
2013-12-31 14:50:00,19.4,15.3,30.07,South,180,10.0,10.0,84,0.00,CLR,,0.00,WeatherDisplay:10.37,2013-12-31 19:50:00,
2013-12-31 14:55:00,19.0,14.7,30.07,SW,232,10.0,14.0,83,0.00,CLR,,0.00,WeatherDisplay:10.37,2013-12-31 19:55:00,
2013-12-31 15:00:00,18.7,14.6,30.08,SSW,202,6.1,9.2,84,0.00,CLR,,0.00,WeatherDisplay:10.37,2013-12-31 20:00:00,
2013-12-31 15:05:00,18.3,14.8,30.08,SW,225,10.4,11.5,86,0.00,CLR,,0.00,WeatherDisplay:10.37,2013-12-31 20:05:00,
2013-12-31 15:10:00,18.0,14.8,30.09,SSW,201,10.0,12.0,87,0.00,CLR,,0.00,WeatherDisplay:10.37,2013-12-31 20:10:00,
2013-12-31 15:15:00,18.0,15.5,30.09,SSW,209,14.0,16.0,90,0.00,CLR,,0.00,WeatherDisplay:10.37,2013-12-31 20:15:00,
2013-12-31 15:20:00,18.0,16.0,30.09,SW,225,9.5,9.5,92,0.00,CLR,,0.00,WeatherDisplay:10.37,2013-12-31 20:20:00,
2013-12-31 15:25:00,18.0,16.3,30.09,WSW,248,7.0,9.2,93,0.00,CLR,,0.00,WeatherDisplay:10.37,2013-12-31 20:25:00,
2013-12-31 15:30:00,17.8,16.1,30.09,West,270,8.5,16.1,93,0.00,CLR,,0.00,WeatherDisplay:10.37,2013-12-31 20:30:00,
2013-12-31 15:35:00,17.8,16.6,30.10,SSW,202,7.8,7.8,95,0.00,CLR,,0.00,WeatherDisplay:10.37,2013-12-31 20:35:00,
2013-12-31 15:40:00,17.6,17.6,30.10,SW,214,6.0,8.0,100,0.00,CLR,,0.00,WeatherDisplay:10.37,2013-12-31 20:40:00,
2013-12-31 15:45:00,17.3,17.3,30.11,WSW,248,9.7,11.5,100,0.00,CLR,,0.00,WeatherDisplay:10.37,2013-12-31 20:45:00,
2013-12-31 15:50:00,17.3,17.3,30.11,South,180,5.8,7.3,100,0.00,CLR,,0.00,WeatherDisplay:10.37,2013-12-31 20:50:00,
2013-12-31 15:55:00,17.0,17.0,30.11,SSW,208,6.0,24.0,100,0.00,CLR,,0.00,WeatherDisplay:10.37,2013-12-31 20:55:00,
2013-12-31 16:00:00,16.9,16.9,30.11,SSW,202,4.1,4.7,100,0.00,CLR,,0.00,WeatherDisplay:10.37,2013-12-31 21:00:00,
2013-12-31 16:05:00,16.8,16.8,30.11,SW,228,6.0,7.0,100,0.00,,,0.00,WeatherDisplay:10.37,2013-12-31 21:05:00,
2013-12-31 16:10:00,16.4,16.4,30.12,SSW,207,9.0,14.0,100,0.00,CLR,,0.00,WeatherDisplay:10.37,2013-12-31 21:10:00,
2013-12-31 16:15:00,16.4,16.4,30.12,SSW,202,7.3,7.3,100,0.00,CLR,,0.00,WeatherDisplay:10.37,2013-12-31 21:15:00,
2013-12-31 16:20:00,16.0,16.0,30.12,SSW,213,8.0,10.0,100,0.00,CLR,,0.00,WeatherDisplay:10.37,2013-12-31 21:20:00,
2013-12-31 16:25:00,15.8,15.8,30.13,SW,215,6.0,13.0,100,0.00,CLR,,0.00,WeatherDisplay:10.37,2013-12-31 21:25:00,
2013-12-31 16:30:00,15.6,15.6,30.13,West,270,7.2,7.3,100,0.00,CLR,,0.00,WeatherDisplay:10.37,2013-12-31 21:30:00,
2013-12-31 16:35:00,15.5,15.5,30.14,SSW,209,6.0,15.0,100,0.00,,,0.00,WeatherDisplay:10.37,2013-12-31 21:35:00,
2013-12-31 16:40:00,15.3,15.3,30.14,South,180,8.7,10.4,100,0.00,CLR,,0.00,WeatherDisplay:10.37,2013-12-31 21:40:00,
2013-12-31 16:45:00,15.1,13.9,30.14,SW,225,9.3,11.9,95,0.00,CLR,,0.00,WeatherDisplay:10.37,2013-12-31 21:45:00,
2013-12-31 16:50:00,15.1,12.9,30.14,West,270,8.4,10.4,91,0.00,CLR,,0.00,WeatherDisplay:10.37,2013-12-31 21:50:00,
2013-12-31 16:55:00,14.9,12.2,30.14,SSE,158,6.0,10.4,89,0.00,CLR,,0.00,WeatherDisplay:10.37,2013-12-31 21:55:00,
2013-12-31 17:00:00,14.7,12.0,30.14,SW,225,2.7,6.3,89,0.00,CLR,,0.00,WeatherDisplay:10.37,2013-12-31 22:00:00,
2013-12-31 17:05:00,14.7,11.3,30.14,SW,225,8.2,13.8,86,0.00,CLR,,0.00,WeatherDisplay:10.37,2013-12-31 22:05:00,
2013-12-31 17:10:00,14.7,11.3,30.15,SW,225,6.1,10.4,86,0.00,CLR,,0.00,WeatherDisplay:10.37,2013-12-31 22:10:00,
2013-12-31 17:15:00,14.7,11.0,30.15,South,180,10.9,15.0,85,0.00,CLR,,0.00,WeatherDisplay:10.37,2013-12-31 22:15:00,
2013-12-31 17:20:00,14.7,11.0,30.15,SSE,158,8.8,9.2,85,0.00,CLR,,0.00,WeatherDisplay:10.37,2013-12-31 22:20:00,
2013-12-31 17:25:00,14.7,10.7,30.15,SW,225,10.3,13.8,84,0.00,CLR,,0.00,WeatherDisplay:10.37,2013-12-31 22:25:00,
2013-12-31 17:30:00,14.7,10.7,30.15,WSW,248,8.6,13.8,84,0.00,CLR,,0.00,WeatherDisplay:10.37,2013-12-31 22:30:00,
2013-12-31 17:35:00,14.7,11.0,30.16,WSW,248,7.5,9.9,85,0.00,CLR,,0.00,WeatherDisplay:10.37,2013-12-31 22:35:00,
2013-12-31 17:40:00,14.6,11.4,30.16,SW,225,5.6,5.8,87,0.00,CLR,,0.00,WeatherDisplay:10.37,2013-12-31 22:40:00,
2013-12-31 17:45:00,14.6,11.4,30.16,SSW,202,5.7,9.2,87,0.00,CLR,,0.00,WeatherDisplay:10.37,2013-12-31 22:45:00,
2013-12-31 17:50:00,14.6,11.7,30.16,South,180,4.1,12.7,88,0.00,CLR,,0.00,WeatherDisplay:10.37,2013-12-31 22:50:00,
2013-12-31 17:55:00,14.4,11.5,30.16,South,180,6.5,6.9,88,0.00,CLR,,0.00,WeatherDisplay:10.37,2013-12-31 22:55:00,
2013-12-31 18:00:00,14.2,11.3,30.17,SSW,202,8.0,10.4,88,0.00,CLR,,0.00,WeatherDisplay:10.37,2013-12-31 23:00:00,
2013-12-31 18:05:00,14.2,11.3,30.17,SW,225,6.3,8.1,88,0.00,CLR,,0.00,WeatherDisplay:10.37,2013-12-31 23:05:00,
2013-12-31 18:10:00,13.8,11.1,30.17,SW,225,5.3,5.8,89,0.00,CLR,,0.00,WeatherDisplay:10.37,2013-12-31 23:10:00,
2013-12-31 18:15:00,13.8,11.1,30.17,South,180,5.8,8.1,89,0.00,CLR,,0.00,WeatherDisplay:10.37,2013-12-31 23:15:00,
2013-12-31 18:20:00,13.8,10.9,30.17,West,270,6.1,8.1,88,0.00,CLR,,0.00,WeatherDisplay:10.37,2013-12-31 23:20:00,
2013-12-31 18:25:00,13.8,10.4,30.17,WSW,248,3.9,6.9,86,0.00,CLR,,0.00,WeatherDisplay:10.37,2013-12-31 23:25:00,
2013-12-31 18:30:00,13.7,10.3,30.17,WSW,248,5.0,7.3,86,0.00,CLR,,0.00,WeatherDisplay:10.37,2013-12-31 23:30:00,
2013-12-31 18:35:00,13.3,9.9,30.17,SSW,202,3.1,4.2,86,0.00,CLR,,0.00,WeatherDisplay:10.37,2013-12-31 23:35:00,
2013-12-31 18:40:00,13.3,9.6,30.17,WSW,248,4.5,5.8,85,0.00,CLR,,0.00,WeatherDisplay:10.37,2013-12-31 23:40:00,
2013-12-31 18:45:00,13.5,9.5,30.17,SE,135,1.3,4.6,84,0.00,CLR,,0.00,WeatherDisplay:10.37,2013-12-31 23:45:00,
2013-12-31 18:50:00,13.7,9.7,30.17,SW,225,4.1,6.9,84,0.00,CLR,,0.00,WeatherDisplay:10.37,2013-12-31 23:50:00,
2013-12-31 18:55:00,14.0,9.8,30.17,SSW,202,2.4,4.6,83,0.00,CLR,,0.00,WeatherDisplay:10.37,2013-12-31 23:55:00,
2013-12-31 19:00:00,14.0,9.5,30.17,South,180,3.3,4.6,82,0.00,CLR,,0.00,WeatherDisplay:10.37,2014-01-01 00:00:00,
2013-12-31 19:05:00,14.0,9.5,30.17,South,180,3.1,3.5,82,0.00,CLR,,0.00,WeatherDisplay:10.37,2014-01-01 00:05:00,
2013-12-31 19:11:00,14.2,9.7,30.18,SW,225,3.0,8.1,82,0.00,CLR,,0.00,WeatherDisplay:10.37,2014-01-01 00:11:00,
2013-12-31 19:16:00,14.2,9.7,30.18,SSE,158,1.4,2.3,82,0.00,CLR,,0.00,WeatherDisplay:10.37,2014-01-01 00:16:00,
2013-12-31 19:21:00,14.6,9.8,30.18,SSW,202,7.2,11.4,81,0.00,CLR,,0.00,WeatherDisplay:10.37,2014-01-01 00:21:00,
2013-12-31 19:26:00,14.7,9.6,30.18,SSE,158,8.3,8.3,80,0.00,CLR,,0.00,WeatherDisplay:10.37,2014-01-01 00:26:00,
2013-12-31 19:31:00,14.9,9.8,30.18,SSW,202,8.5,15.0,80,0.00,CLR,,0.00,WeatherDisplay:10.37,2014-01-01 00:31:00,
2013-12-31 19:36:00,14.9,9.5,30.19,SSE,158,3.3,5.8,79,0.00,CLR,,0.00,WeatherDisplay:10.37,2014-01-01 00:36:00,
2013-12-31 19:41:00,14.9,9.8,30.19,SSW,202,6.7,8.1,80,0.00,CLR,,0.00,WeatherDisplay:10.37,2014-01-01 00:41:00,
2013-12-31 19:46:00,15.1,10.0,30.19,SW,225,7.4,10.4,80,0.00,CLR,,0.00,WeatherDisplay:10.37,2014-01-01 00:46:00,
2013-12-31 19:51:00,15.1,9.7,30.19,South,180,8.2,9.2,79,0.00,CLR,,0.00,WeatherDisplay:10.37,2014-01-01 00:51:00,
2013-12-31 19:56:00,15.1,9.7,30.19,SSW,202,5.5,6.9,79,0.00,CLR,,0.00,WeatherDisplay:10.37,2014-01-01 00:56:00,
2013-12-31 20:01:00,15.1,9.7,30.20,WSW,248,8.1,10.4,79,0.00,CLR,,0.00,WeatherDisplay:10.37,2014-01-01 01:01:00,
2013-12-31 20:06:00,15.1,9.7,30.20,SW,225,5.5,6.9,79,0.00,CLR,,0.00,WeatherDisplay:10.37,2014-01-01 01:06:00,
2013-12-31 20:11:00,15.1,9.7,30.19,SW,225,3.3,5.8,79,0.00,CLR,,0.00,WeatherDisplay:10.37,2014-01-01 01:11:00,
2013-12-31 20:16:00,15.1,9.7,30.19,ESE,112,4.4,4.7,79,0.00,CLR,,0.00,WeatherDisplay:10.37,2014-01-01 01:16:00,
2013-12-31 20:21:00,15.1,9.7,30.19,SW,225,6.3,6.3,79,0.00,CLR,,0.00,WeatherDisplay:10.37,2014-01-01 01:21:00,
2013-12-31 20:26:00,15.1,9.7,30.19,South,180,6.8,8.1,79,0.00,CLR,,0.00,WeatherDisplay:10.37,2014-01-01 01:26:00,
2013-12-31 20:31:00,15.1,9.7,30.19,SW,225,5.2,5.8,79,0.00,CLR,,0.00,WeatherDisplay:10.37,2014-01-01 01:31:00,
2013-12-31 20:36:00,15.1,9.7,30.19,WSW,248,4.8,5.8,79,0.00,CLR,,0.00,WeatherDisplay:10.37,2014-01-01 01:36:00,
2013-12-31 20:41:00,15.1,9.7,30.19,SSW,202,5.6,6.9,79,0.00,CLR,,0.00,WeatherDisplay:10.37,2014-01-01 01:41:00,
2013-12-31 20:46:00,15.1,9.7,30.19,SW,225,6.0,8.8,79,0.00,CLR,,0.00,WeatherDisplay:10.37,2014-01-01 01:46:00,
2013-12-31 20:51:00,15.1,9.7,30.19,SSW,202,5.0,8.1,79,0.00,CLR,,0.00,WeatherDisplay:10.37,2014-01-01 01:51:00,
2013-12-31 20:56:00,15.1,9.7,30.19,SSE,158,5.4,6.9,79,0.00,CLR,,0.00,WeatherDisplay:10.37,2014-01-01 01:56:00,
2013-12-31 21:01:00,15.1,9.7,30.20,South,180,4.0,5.3,79,0.00,CLR,,0.00,WeatherDisplay:10.37,2014-01-01 02:01:00,
2013-12-31 21:06:00,15.3,9.9,30.20,SSW,202,7.9,9.2,79,0.00,CLR,,0.00,WeatherDisplay:10.37,2014-01-01 02:06:00,
2013-12-31 21:11:00,15.3,9.9,30.19,SSW,202,2.3,4.6,79,0.00,CLR,,0.00,WeatherDisplay:10.37,2014-01-01 02:11:00,
2013-12-31 21:16:00,15.5,10.1,30.19,SSW,202,4.8,6.9,79,0.00,CLR,,0.00,WeatherDisplay:10.37,2014-01-01 02:16:00,
2013-12-31 21:21:00,15.6,9.9,30.19,South,180,6.3,12.7,78,0.00,CLR,,0.00,WeatherDisplay:10.37,2014-01-01 02:21:00,
2013-12-31 21:26:00,15.6,10.2,30.19,WSW,248,4.2,4.7,79,0.00,CLR,,0.00,WeatherDisplay:10.37,2014-01-01 02:26:00,
2013-12-31 21:31:00,15.6,10.2,30.19,South,180,5.7,6.9,79,0.00,CLR,,0.00,WeatherDisplay:10.37,2014-01-01 02:31:00,
2013-12-31 21:36:00,15.6,10.2,30.19,SW,225,3.7,5.3,79,0.00,CLR,,0.00,WeatherDisplay:10.37,2014-01-01 02:36:00,
2013-12-31 21:41:00,15.6,10.2,30.19,SW,225,3.8,4.7,79,0.00,CLR,,0.00,WeatherDisplay:10.37,2014-01-01 02:41:00,
2013-12-31 21:46:00,15.8,10.4,30.20,South,180,5.6,8.1,79,0.00,CLR,,0.00,WeatherDisplay:10.37,2014-01-01 02:46:00,
2013-12-31 21:51:00,15.8,10.4,30.20,SW,225,5.0,5.8,79,0.00,CLR,,0.00,WeatherDisplay:10.37,2014-01-01 02:51:00,
2013-12-31 21:56:00,16.0,10.6,30.20,SSW,202,3.9,5.8,79,0.00,CLR,,0.00,WeatherDisplay:10.37,2014-01-01 02:56:00,
2013-12-31 22:01:00,16.0,10.6,30.20,SSW,202,6.0,8.8,79,0.00,CLR,,0.00,WeatherDisplay:10.37,2014-01-01 03:01:00,
2013-12-31 22:06:00,16.0,10.6,30.20,WSW,248,6.8,6.9,79,0.00,CLR,,0.00,WeatherDisplay:10.37,2014-01-01 03:06:00,
2013-12-31 22:11:00,16.2,10.5,30.19,SE,135,3.2,3.5,78,0.00,CLR,,0.00,WeatherDisplay:10.37,2014-01-01 03:11:00,
2013-12-31 22:16:00,16.2,10.5,30.19,WSW,248,3.8,4.6,78,0.00,CLR,,0.00,WeatherDisplay:10.37,2014-01-01 03:16:00,
2013-12-31 22:21:00,16.2,10.8,30.19,SW,225,2.9,6.9,79,0.00,CLR,,0.00,WeatherDisplay:10.37,2014-01-01 03:21:00,
2013-12-31 22:26:00,16.2,10.8,30.19,SW,225,4.7,6.9,79,0.00,CLR,,0.00,WeatherDisplay:10.37,2014-01-01 03:26:00,
2013-12-31 22:31:00,16.4,11.0,30.19,South,180,5.3,6.9,79,0.00,CLR,,0.00,WeatherDisplay:10.37,2014-01-01 03:31:00,
2013-12-31 22:36:00,16.4,11.0,30.19,SSW,202,3.7,6.8,79,0.00,CLR,,0.00,WeatherDisplay:10.37,2014-01-01 03:36:00,
2013-12-31 22:41:00,16.5,11.1,30.19,SSW,202,5.9,5.9,79,0.00,CLR,,0.00,WeatherDisplay:10.37,2014-01-01 03:41:00,
2013-12-31 22:46:00,16.7,11.0,30.19,South,180,6.1,6.9,78,0.00,CLR,,0.00,WeatherDisplay:10.37,2014-01-01 03:46:00,
2013-12-31 22:51:00,16.7,11.3,30.19,South,180,3.9,5.8,79,0.00,CLR,,0.00,WeatherDisplay:10.37,2014-01-01 03:51:00,
2013-12-31 22:56:00,16.9,11.5,30.20,SSW,202,5.8,8.1,79,0.00,CLR,,0.00,WeatherDisplay:10.37,2014-01-01 03:56:00,
2013-12-31 23:01:00,16.9,11.5,30.20,West,270,7.3,10.4,79,0.00,CLR,,0.00,WeatherDisplay:10.37,2014-01-01 04:01:00,
2013-12-31 23:06:00,16.9,11.5,30.20,SSE,158,4.7,6.3,79,0.00,CLR,,0.00,WeatherDisplay:10.37,2014-01-01 04:06:00,
2013-12-31 23:11:00,16.9,11.5,30.19,SW,225,5.9,7.3,79,0.00,CLR,,0.00,WeatherDisplay:10.37,2014-01-01 04:11:00,
2013-12-31 23:16:00,17.1,12.0,30.19,South,180,5.6,5.8,80,0.00,CLR,,0.00,WeatherDisplay:10.37,2014-01-01 04:16:00,
2013-12-31 23:21:00,17.1,12.0,30.20,SSE,158,4.5,4.6,80,0.00,CLR,,0.00,WeatherDisplay:10.37,2014-01-01 04:21:00,
2013-12-31 23:26:00,17.1,12.3,30.20,SSW,202,3.6,4.2,81,0.00,CLR,,0.00,WeatherDisplay:10.37,2014-01-01 04:26:00,
2013-12-31 23:31:00,17.3,12.7,30.20,SW,225,6.4,8.1,82,0.00,CLR,,0.00,WeatherDisplay:10.37,2014-01-01 04:31:00,
2013-12-31 23:36:00,17.3,13.3,30.20,SW,225,3.9,6.9,84,0.00,CLR,,0.00,WeatherDisplay:10.37,2014-01-01 04:36:00,
2013-12-31 23:41:00,17.3,13.8,30.20,South,180,5.6,7.3,86,0.00,CLR,,0.00,WeatherDisplay:10.37,2014-01-01 04:41:00,
2013-12-31 23:46:00,17.3,14.3,30.20,WSW,248,4.1,6.3,88,0.00,CLR,,0.00,WeatherDisplay:10.37,2014-01-01 04:46:00,
2013-12-31 23:51:00,17.3,14.9,30.20,SSW,202,3.4,6.9,90,0.00,CLR,,0.00,WeatherDisplay:10.37,2014-01-01 04:51:00,
2013-12-31 23:56:00,17.3,14.9,30.20,SW,225,3.9,5.8,90,0.00,CLR,,0.00,WeatherDisplay:10.37,2014-01-01 04:56:00,